Skip Page Navigation
NASA JPL Caltech
NASA Logo - Jet Propulsion Laboratory + View the NASA Portal
+ Near-Earth Object (NEO) Program
Search JPL
JPL Home Earth Solar System Stars & Galaxies Technology
JPL Solar System Dynamics
BODIES ORBITS EPHEMERIDES TOOLS PHYSICAL DATA DISCOVERY FAQ SITE MAP
JPL Small-Body Database Browser
Search: [ help ]  
(2005 EL70)
Classification: Apollo [NEO]          SPK-ID: 3273785
Ephemeris | Orbit Diagram | Orbital Elements | Physical Parameters | Close-Approach Data ]

[ hide orbit diagram ]
Orbit Diagram
Note: Make sure you have Java enabled on your browser to see the applet. This applet is provided as a 3D orbit visualization tool. The applet was implemented using 2-body methods, and hence should not be used for determining accurate long-term trajectories (over several years or decades) or planetary encounter circumstances. For accurate long-term ephemerides, please instead use our Horizons system.
Orbit Viewer

Additional Notes: the orbits shown in the applet are color coded. The planets are white lines, and the asteroid/comet is a blue line. The bright white line indicates the portion of the orbit that is above the ecliptic plane, and the darker portion is below the ecliptic plane. Likewise for the asteroid/comet orbit, the light blue indicates the portion above the ecliptic plane, and the dark blue the portion below the ecliptic plane.

Orbit Viewer applet originally written and kindly provided by Osamu Ajiki (AstroArts), and further modified by Ron Baalke (JPL).


Orbital Elements at Epoch 2453438.5 (2005-Mar-09.0) TDB
Reference: JPL 3 (heliocentric ecliptic J2000)
 Element Value Uncertainty (1-sigma)   Units 
e .9360358643762156 0.0044086  
a 2.52730730565669 0.12942 AU
q .1616570272620058 0.0028637 AU
i 16.90043559976598 0.3249 deg
node 167.5648265783415 0.0062069 deg
peri 220.1656522837911 0.12355 deg
M 10.15818280346781 0.84596 deg
tp 2453397.090591284678
(2005-Jan-26.59059128)
0.26769 JED
period 1467.524992012039
4.02
112.73
0.3086
d
yr
n .2453109841123897 0.018843 deg/d
Q 4.892957584051374 0.25057 AU
  Orbit Determination Parameters
   # obs. used (total)      18  
   data-arc span      2 days  
   first obs. used      2005-03-08  
   last obs. used      2005-03-10  
   planetary ephem.      DE405  
   SB-pert. ephem.      SB405-CPV-2  
   condition code      9  
   fit RMS      .89387  
   data source      ORB  
   producer      Otto Matic  
   solution date      2011-Sep-14 20:00:46  

Additional Information
 Earth MOID = .0141666 AU 
 T_jup = 2.528 
[ show covariance matrix ]

Ephemeris | Orbit Diagram | Orbital Elements | Physical Parameters | Close-Approach Data ]

Physical Parameter Table
Parameter Symbol Value Units Sigma Reference Notes
absolute magnitude H 23.996 mag .4013 3 autocmod 2.5a

[ show close-approach data ]
Ephemeris | Orbit Diagram | Orbital Elements | Physical Parameters | Close-Approach Data ]
ABOUT SSD CREDITS/AWARDS PRIVACY/COPYRIGHT GLOSSARY LINKS
FirstGov 2013-May-25 05:38 UT
(server date/time)  
NASA Home Page
Site Manager:   Donald K. Yeomans
Webmaster  Alan B. Chamberlin